Location: Aragoneses
(41.0275°N, 4.3847°W)
Time: 21:28:08
(UTC+00:00)

Cosmos 724 - Pass Details

Date: 11 December 2025
Orbit: 853 x 941 km, 65.6° (Epoch: 12 January)

Event Time Altitude Azimuth Distance (km) Brightness Sun altitude
Rises 17:34:58 0° 328° (NNW) 3,553 7.6 -8.5°
Reaches altitude 10° 17:37:31 10° 328° (NNW) 2,594 6.9 -9.0°
Maximum altitude 17:43:33 89° 244° (WSW) 895 4.4 -10.0°
Drops below altitude 10° 17:49:25 10° 151° (SSE) 2,518 6.6 -11.1°
Sets 17:51:51 0° 151° (SSE) 3,441 7.3 -11.5°
